Stündliche Wetter Bolshie Malamasy

Heute, 29 Juli, Donnerstag

Zeit Temperatur Niederschläge Wind Luftdruck Luftfeuchtigkeit
00:00 +15°C° 0 mm 1 m/S 754 mmHg 58%
01:00 +15°C° 0 mm 2 m/S 754 mmHg 59%
02:00 +15°C° 0 mm 2 m/S 754 mmHg 61%
03:00 +15°C° 0 mm 2 m/S 753 mmHg 63%
04:00 +16°C° 0 mm 2 m/S 753 mmHg 64%
05:00 +17°C° 0 mm 2 m/S 753 mmHg 65%
06:00 +18°C° 0 mm 2 m/S 753 mmHg 66%
07:00 +20°C° 0 mm 2 m/S 752 mmHg 62%
08:00 +22°C° 0 mm 3 m/S 752 mmHg 57%
09:00 +25°C° 0 mm 4 m/S 752 mmHg 52%
10:00 +25°C° 0 mm 5 m/S 752 mmHg 52%
11:00 +26°C° 0 mm 5 m/S 752 mmHg 53%
12:00 +26°C° 0 mm 5 m/S 752 mmHg 53%
13:00 +25°C° 0.1 mm 5 m/S 751 mmHg 59%
14:00 +23°C° 0.1 mm 5 m/S 751 mmHg 66%
15:00 +21°C° 0 mm 5 m/S 750 mmHg 74%
16:00 +21°C° 0 mm 5 m/S 750 mmHg 76%
17:00 +20°C° 0 mm 4 m/S 750 mmHg 78%
18:00 +20°C° 0 mm 4 m/S 749 mmHg 80%
19:00 +19°C° 0 mm 3 m/S 749 mmHg 85%
20:00 +18°C° 0 mm 2 m/S 748 mmHg 90%
21:00 +17°C° 0 mm 2 m/S 748 mmHg 95%
22:00 +16°C° 0 mm 1 m/S 748 mmHg 95%
23:00 +16°C° 0 mm 1 m/S 748 mmHg 95%

Morgen, 30 Juli, Freitag

Zeit Temperatur Niederschläge Wind Luftdruck Luftfeuchtigkeit
00:00 +16°C° 0 mm 1 m/S 747 mmHg 95%
01:00 +16°C° 0 mm 1 m/S 747 mmHg 95%
02:00 +16°C° 0 mm 1 m/S 747 mmHg 95%
03:00 +16°C° 0 mm 1 m/S 747 mmHg 95%
04:00 +17°C° 0 mm 2 m/S 748 mmHg 93%
05:00 +18°C° 0 mm 2 m/S 748 mmHg 90%
06:00 +19°C° 0 mm 2 m/S 748 mmHg 88%
07:00 +20°C° 0 mm 3 m/S 748 mmHg 80%
08:00 +22°C° 0 mm 3 m/S 748 mmHg 72%
09:00 +25°C° 0 mm 4 m/S 748 mmHg 64%
10:00 +27°C° 0 mm 4 m/S 748 mmHg 58%
11:00 +28°C° 0 mm 4 m/S 748 mmHg 52%
12:00 +29°C° 0 mm 5 m/S 748 mmHg 47%
13:00 +30°C° 0 mm 5 m/S 748 mmHg 44%
14:00 +30°C° 0 mm 4 m/S 748 mmHg 41%
15:00 +32°C° 0 mm 4 m/S 748 mmHg 38%
16:00 +30°C° 0 mm 4 m/S 748 mmHg 44%
17:00 +28°C° 0 mm 3 m/S 748 mmHg 50%
18:00 +27°C° 0 mm 3 m/S 748 mmHg 55%
19:00 +26°C° 0 mm 2 m/S 748 mmHg 58%
20:00 +25°C° 0 mm 2 m/S 748 mmHg 61%
21:00 +24°C° 0 mm 2 m/S 748 mmHg 64%
22:00 +23°C° 0.6 mm 2 m/S 748 mmHg 73%
23:00 +21°C° 0.6 mm 2 m/S 748 mmHg 83%

übermorgen, 31 Juli, Samstag

Zeit Temperatur Niederschläge Wind Luftdruck Luftfeuchtigkeit
00:00 +20°C° 0.6 mm 2 m/S 748 mmHg 93%
01:00 +19°C° 0.1 mm 2 m/S 748 mmHg 93%
02:00 +19°C° 0.1 mm 2 m/S 747 mmHg 93%
03:00 +20°C° 0.1 mm 1 m/S 747 mmHg 93%
04:00 +20°C° 0 mm 2 m/S 747 mmHg 92%
05:00 +20°C° 0 mm 2 m/S 747 mmHg 91%
06:00 +20°C° 0 mm 2 m/S 747 mmHg 90%
07:00 +22°C° 0 mm 3 m/S 747 mmHg 84%
08:00 +24°C° 0 mm 3 m/S 747 mmHg 78%
09:00 +25°C° 0 mm 4 m/S 747 mmHg 72%
10:00 +26°C° 0.5 mm 5 m/S 747 mmHg 72%
11:00 +26°C° 0.5 mm 5 m/S 747 mmHg 73%
12:00 +26°C° 0.5 mm 6 m/S 747 mmHg 73%
13:00 +27°C° 0.3 mm 6 m/S 747 mmHg 64%
14:00 +28°C° 0.3 mm 6 m/S 747 mmHg 56%
15:00 +29°C° 0.3 mm 6 m/S 747 mmHg 47%
16:00 +28°C° 0 mm 5 m/S 747 mmHg 48%
17:00 +27°C° 0 mm 5 m/S 747 mmHg 49%
18:00 +26°C° 0 mm 4 m/S 748 mmHg 49%
19:00 +25°C° 0 mm 4 m/S 748 mmHg 51%
20:00 +24°C° 0 mm 3 m/S 748 mmHg 53%
21:00 +22°C° 0 mm 3 m/S 748 mmHg 54%
22:00 +21°C° 0 mm 3 m/S 749 mmHg 57%
23:00 +20°C° 0 mm 3 m/S 749 mmHg 60%

1 August, Sonntag

Zeit Temperatur Niederschläge Wind Luftdruck Luftfeuchtigkeit
00:00 +19°C° 0 mm 3 m/S 749 mmHg 63%
01:00 +18°C° 0 mm 3 m/S 750 mmHg 64%
02:00 +18°C° 0 mm 2 m/S 750 mmHg 66%
03:00 +17°C° 0 mm 2 m/S 750 mmHg 67%
04:00 +18°C° 0 mm 2 m/S 750 mmHg 66%
05:00 +19°C° 0 mm 2 m/S 751 mmHg 66%
06:00 +20°C° 0 mm 2 m/S 751 mmHg 65%
07:00 +21°C° 0 mm 3 m/S 751 mmHg 60%
08:00 +23°C° 0 mm 4 m/S 751 mmHg 55%
09:00 +26°C° 0 mm 5 m/S 752 mmHg 49%
10:00 +27°C° 0 mm 5 m/S 752 mmHg 46%
11:00 +28°C° 0 mm 5 m/S 752 mmHg 42%
12:00 +29°C° 0 mm 5 m/S 752 mmHg 38%
13:00 +29°C° 0 mm 5 m/S 752 mmHg 37%
14:00 +29°C° 0 mm 5 m/S 752 mmHg 37%
15:00 +30°C° 0 mm 5 m/S 752 mmHg 36%
16:00 +29°C° 0 mm 5 m/S 752 mmHg 40%
17:00 +28°C° 0 mm 4 m/S 752 mmHg 44%
18:00 +28°C° 0 mm 3 m/S 752 mmHg 48%
19:00 +26°C° 0 mm 2 m/S 753 mmHg 51%
20:00 +25°C° 0 mm 1 m/S 753 mmHg 54%
21:00 +24°C° 0 mm 1 m/S 753 mmHg 58%
22:00 +24°C° 0 mm 1 m/S 753 mmHg 59%
23:00 +23°C° 0 mm 1 m/S 753 mmHg 60%

2 August, Montag

Zeit Temperatur Niederschläge Wind Luftdruck Luftfeuchtigkeit
00:00 +23°C° 0 mm 2 m/S 753 mmHg 61%
01:00 +23°C° 0 mm 2 m/S 753 mmHg 63%
02:00 +21°C° 0 mm 2 m/S 753 mmHg 65%
03:00 +21°C° 0 mm 2 m/S 753 mmHg 66%
04:00 +21°C° 0 mm 2 m/S 753 mmHg 67%
05:00 +21°C° 0 mm 2 m/S 753 mmHg 68%
06:00 +23°C° 0 mm 2 m/S 753 mmHg 69%
07:00 +24°C° 0 mm 3 m/S 753 mmHg 62%
08:00 +26°C° 0 mm 4 m/S 752 mmHg 54%
09:00 +28°C° 0 mm 5 m/S 752 mmHg 47%
10:00 +29°C° 0 mm 5 m/S 752 mmHg 45%
11:00 +30°C° 0 mm 5 m/S 752 mmHg 43%
12:00 +32°C° 0 mm 5 m/S 752 mmHg 42%
13:00 +29°C° 0 mm 4 m/S 752 mmHg 47%
14:00 +28°C° 0 mm 3 m/S 752 mmHg 52%
15:00 +26°C° 0 mm 1 m/S 752 mmHg 57%
16:00 +28°C° 0 mm 1 m/S 752 mmHg 56%
17:00 +29°C° 0 mm 1 m/S 751 mmHg 55%
18:00 +30°C° 0 mm 2 m/S 751 mmHg 54%
19:00 +28°C° 0 mm 2 m/S 751 mmHg 59%
20:00 +27°C° 0 mm 2 m/S 751 mmHg 63%
21:00 +25°C° 0 mm 2 m/S 750 mmHg 67%
22:00 +25°C° 0 mm 2 m/S 750 mmHg 70%
23:00 +24°C° 0 mm 2 m/S 751 mmHg 73%

3 August, Dienstag

Zeit Temperatur Niederschläge Wind Luftdruck Luftfeuchtigkeit
00:00 +23°C° 0 mm 2 m/S 751 mmHg 76%
01:00 +23°C° 0.1 mm 2 m/S 750 mmHg 77%
02:00 +21°C° 0.1 mm 2 m/S 750 mmHg 78%
03:00 +21°C° 0.1 mm 2 m/S 750 mmHg 80%
04:00 +23°C° 0 mm 2 m/S 750 mmHg 77%
05:00 +22°C° 0 mm 3 m/S 750 mmHg 75%
06:00 +24°C° 0 mm 3 m/S 750 mmHg 72%
07:00 +26°C° 0 mm 3 m/S 750 mmHg 65%
08:00 +27°C° 0 mm 4 m/S 750 mmHg 58%
09:00 +29°C° 0 mm 4 m/S 750 mmHg 51%
10:00 +32°C° 0 mm 4 m/S 750 mmHg 46%
11:00 +33°C° 0 mm 4 m/S 749 mmHg 41%
12:00 +35°C° 0 mm 4 m/S 749 mmHg 36%
13:00 +35°C° 0 mm 4 m/S 749 mmHg 36%
14:00 +35°C° 0 mm 4 m/S 749 mmHg 37%
15:00 +35°C° 0 mm 4 m/S 749 mmHg 37%
16:00 +30°C° 1.5 mm 3 m/S 749 mmHg 54%
17:00 +26°C° 1.5 mm 3 m/S 750 mmHg 70%
18:00 +21°C° 1.5 mm 3 m/S 750 mmHg 86%
19:00 +21°C° 0 mm 2 m/S 751 mmHg 89%
20:00 +21°C° 0 mm 2 m/S 751 mmHg 92%
21:00 +20°C° 0 mm 2 m/S 751 mmHg 94%
22:00 +20°C° 0 mm 2 m/S 752 mmHg 94%
23:00 +19°C° 0 mm 2 m/S 752 mmHg 94%
Mehr zeigen

Wir brauchen deine Erlaubnis

Meteoprog und unser Service Anbieter werden persönliche Daten aufbewahren, so wie Cookies, Geräte Bezeichnung oder ähnliche Technologien von deinem Gerät und Prozess, so wie Persönliche Daten Inhalte und Werbungen, genauso wie social Media und den Verkehr zu analysieren.

  • Aufbewahrung und/oder Zugang zu deiner Geräte Informationen.

    Cookies, Geräte Bezeichnung oder andere Informationen, können aufbewahrt oder Zugang zu deinem Gerät erhalten, für den Grund, der oben angegeben wird.

  • Personalisierte Werbung und Inhalte, Messungen, Einblick in das Publikum und Produkt Entwicklung.

    Werbungen und Inhalte können personalisiert werden, basierend auf ein Profil. Mehr Daten können besser personalisierte Werbungen und Inhalte hinzufügen. Werbung und Inhalte können gezeigt und gemessen werden. Einblicke über das Publikum, welche die Werbung gesehen haben und den Inhalt, können abgeleitet werden. So wie Daten können genutzt werden, um es zu verbessern oder die Benutzer Erfahrung zu verbessern das System und die Software.

Wenn du “Ich stimme zu” klickst, erlaubst du uns, die Cookies zu benutzen die Geräte Bezeichnung, den Web oder ähnliche Technologien zu benutzen. Deine Settings, können in deinem Gerät bei deinem Browser geändert werden.

Für den bestimmten Zweck, berechtigten Interessen beruhen darauf, mehr als auf den Inhalt. Du kannst mehr darüber in unseren Privaten und Cookie Politik lesen.